Notices

What's New in latest Release from April 7th, 2021:

- Updated Glossary, including Speed of Maximum Gust, and Total Hourly Precipitation

- Updated national and regional climate services offices contacts and prices information

- Addition of station inventory lists for 1981-2010, 1971-2000, and 1961-1990 Normals.

If you haven't already, please take our survey and provide feedback about our website: https://eccc.sondage-survey.ca/f/LanguageSelection.aspx?s=442ca660-fcf1-47c0-95a9-59707d6fd709

Hourly Data Report for September 07, 2017

VICTORIA UNIVERSITY CS
BRITISH COLUMBIA

48°27'25.200" N
123°18'16.600" W
60.10 m
1018598
71783
WYJ

Download Data

Hourly Data (September 2017)
Hourly Data Report for September 7, 2017
TIME
LST
Temp Definition
°C
Dew Point Definition
°C
Rel Hum Definition
%
Precip. Amount Definition
mm

Wind Dir Definition
10's deg

Wind Spd Definition
km/h
Visibility Definition
km
Stn Press Definition
kPa
Hmdx Definition


Wind Chill Definition


Weather Definition


00:00 13.0 11.6 91 0.0 6 1   100.59     LegendNANA
01:00 12.7 11.6 93 0.0 35 3   100.58     LegendNANA
02:00 12.2 11.4 95 0.0 36 3   100.61     LegendNANA
03:00 13.2 12.2 94 0.0 0 1   100.58     LegendNANA
04:00 12.7 11.9 95 0.0 22 4   100.60     LegendNANA
05:00 12.1 11.5 96 0.0 23 1   100.59     LegendNANA
06:00 12.9 12.4 97 0.0 16 3   100.57     LegendNANA
07:00 13.3 12.5 95 0.0 17 4   100.61     LegendNANA
08:00 14.7 12.9 89 0.0 8 3   100.51     LegendNANA
09:00 16.6 13.1 80 0.0 11 2   100.53     LegendNANA
10:00 18.9 13.7 72 0.0 11 2   100.53     LegendNANA
11:00 18.8 14.1 74 0.0 10 2   100.53     LegendNANA
12:00 20.0 14.7 71 0.0 10 2   100.48     LegendNANA
13:00 21.1 15.2 69 0.0 22 4   100.44 25   LegendNANA
14:00 21.8 15.6 68 0.0 18 3   100.40 26   LegendNANA
15:00 23.5 15.4 60 0.0 22 5   100.37 28   LegendNANA
16:00 22.7 15.0 62 0.0 16 2   100.33 27   LegendNANA
17:00 20.8 14.4 67 0.0 3 3   100.34     LegendNANA
18:00 17.4 13.3 77 0.0 9 3   100.45     LegendNANA
19:00 16.9 13.3 79 0.0 7 3   100.37     LegendNANA
20:00 16.3 14.0 86 0.0 18 6   100.46     LegendNANA
21:00 17.0 15.1 89 0.0 24 4   100.50     LegendNANA
22:00 17.6 15.3 87 0.0 23 2   100.51     LegendNANA
23:00 16.5 14.4 88 0.0 23 5   100.51     LegendNANA

Notes on Data Quality.

Legend

  • E = Estimated
  • M = Missing
  • NA = Not Available*
  • [empty] = Indicates an unobserved value
Date modified: